Location: Silverdale
(47.6506°N, 122.6941°W)
Time: 03:31:24
(UTC+00:00)

Altair - Pass Details

Date: 07 October 2022
Orbit: 1501 x 1682 km, 47.2° (Epoch: 05 December)

Event Time Altitude Azimuth Distance (km) Brightness Sun altitude
Rises 10:41:20 0° 203° (SSW) 4,702 - -35.5°
Reaches altitude 10° 10:44:46 10° 193° (SSW) 3,747 - -35.0°
Exits shadow 10:50:26 29° 160° (SSE) 2,611 8.5 -34.2°
Maximum altitude 10:52:49 32° 135° (SE) 2,487 8.6 -33.9°
Drops below altitude 10° 11:01:07 10° 77° (ENE) 3,882 10.4 -32.7°
Sets 11:04:43 0° 69° (ENE) 4,894 11.2 -32.2°
